SCP
0 0 0 0 0 0 0 0 0 0 0 0 0 0 0 0 0 0 0 0 0 0 0 0 0 0 2 3 3 1 1 2 3 3 2 2 2 1 2 1 2 3 1 1
0 0 0 0 0 0 0 0 0 0 0 0 0 0 0 0 0 0 0 0 0 0 0 0 0 0 1 2 2 2 2 2 2 2 2 2 2 2 2 3 3 2 1 1
0 0 0 0 0 0 0 0 0 0 0 0 0 0 0 0 0 0 0 0 0 0 0 0 0 1 1 1 2 2 3 3 2 3 4 4 3 4 2 2 2 1 1 2
0 0 0 0 0 0 0 0 0 0 0 0 0 0 0 0 0 0 0 0 0 0 -0 0 0 1 1 1 2 3 3 3 3 2 2 2 1 2 3 3 3 3 2 2
0 0 0 -0 0 0 0 0 0 0 0 0 0 0 0 0 0 0 0 0 0 0 0 0 0 0 1 2 2 3 4 3 2 2 2 1 1 2 2 3 2 3 2 2
0 0 0 0 -0 0 0 0 0 0 0 0 0 0 0 0 0 0 0 0 0 0 0 0 0 0 1 1 1 1 2 2 2 2 2 2 2 2 2 2 1 2 1 1
-0 0 0 0 0 0 0 0 0 0 0 0 0 0 0 0 0 0 0 0 0 0 0 0 0 1 1 1 1 1 2 2 2 2 2 3 3 4 3 1 2 1 1 0
0 0 0 0 0 0 0 0 0 0 0 0 0 0 0 0 0 0 0 0 0 0 0 0 0 1 1 1 1 1 1 1 2 1 1 2 2 2 1 1 0 0 0 0
0 0 0 0 0 0 0 0 0 0 0 0 0 0 1 0 0 0 0 0 0 0 0 1 1 1 1 1 1 1 1 1 1 1 1 1 0 0 0 0 0 0 0 0
-0 0 -0 0 0 0 0 0 0 0 0 0 0 0 0 0 0 0 0 0 0 0 0 0 1 1 1 1 2 1 1 1 0 0 0 0 0 0 0 0 0 0 0 0
0 -0 0 0 0 0 0 0 0 0 0 0 0 0 0 0 0 0 0 0 0 0 0 0 0 0 0 0 0 0 0 0 0 0 0 0 0 0 0 0 0 0 0 0
-0 -0 -0 0 0 0 0 0 0 0 0 0 0 1 0 0 0 0 0 0 0 0 0 0 0 0 0 0 0 0 0 0 0 0 0 0 0 0 0 0 0 0 0 0
-0 -0 -0 -0 0 0 0 0 0 0 0 0 0 1 1 0 0 0 0 0 0 0 0 0 0 0 0 0 0 0 0 0 0 0 0 0 0 0 0 0 0 0 0 0
-0 -0 -0 0 -0 0 0 0 0 0 0 0 0 0 0 0 0 0 0 0 0 0 0 0 0 0 0 0 0 0 0 0 0 0 0 0 0 0 0 0 0 0 0 0
-0 -0 -0 -0 -0 -0 0 0 0 0 0 0 0 0 0 0 0 0 0 0 0 0 0 0 0 0 0 0 0 0 0 0 0 0 0 0 0 0 0 0 0 0 0 0
0 -0 0 0 -0 0 0 0 0 0 0 0 0 0 0 0 0 0 0 0 0 0 0 0 0 0 0 0 0 0 0 0 0 0 0 0 0 0 0 0 0 0 0 0
0 0 0 -0 -0 -0 -0 0 0 0 0 0 0 0 0 0 0 0 0 0 0 0 0 0 0 0 0 0 0 0 0 0 0 0 0 0 0 0 0 0 0 0 0 0
0 0 0 0 0 -0 0 0 0 0 0 0 0 0 0 0 0 0 0 0 0 0 0 0 0 0 0 0 0 0 0 0 0 0 0 0 0 0 0 0 0 0 0 0
-0 0 0 0 0 0 0 0 0 0 0 0 0 0 0 0 0 0 0 0 0 0 0 0 0 0 0 0 0 0 0 0 0 0 0 0 0 0 0 0 0 0 0 0
0 0 0 0 0 1 0 0 0 0 0 0 0 0 0 0 0 0 0 0 0 0 0 0 0 0 0 0 0 0 0 0 0 0 0 0 0 0 0 0 0 0 0 0
0 0 0 0 0 0 0 0 0 0 0 0 0 0 0 0 0 0 0 0 0 0 0 0 0 0 0 0 0 0 0 0 0 0 0 0 0 0 0 0 0 0 0 0
0 0 0 0 0 0 -0 0 0 0 0 0 0 0 0 0 0 0 0 0 0 0 0 0 0 0 0 0 0 0 0 0 0 0 0 0 0 0 0 0 0 0 0 0
0 0 0 0 0 0 0 0 0 0 0 0 0 0 0 -0 0 0 0 0 0 0 0 0 0 0 0 0 0 0 0 0 0 0 0 0 0 0 0 0 0 0 0 0
0 -0 0 0 0 0 0 0 0 0 0 0 0 0 -0 -0 0 0 0 0 0 0 0 0 0 0 0 0 0 0 0 0 0 0 0 0 0 0 0 0 0 0 0 0
0 0 0 0 0 0 0 0 0 0 0 0 0 0 0 0 0 0 0 0 0 0 0 0 0 0 0 0 0 0 0 0 0 0 0 0 0 0 0 0 0 0 0 0
0 0 0 0 0 0 0 0 0 0 0 0 0 -0 0 0 0 0 0 0 0 0 0 0 0 0 0 0 0 0 0 0 0 0 0 0 0 0 0 0 0 0 0 0
Wind_Speed_500mb
61 36 52 76 71 52 48 47 53 40 47 41 50 43 46 27 37 43 50 52 49 51 49 48 41 41 50 51 44 46 45 43 45 48 42 35 35 28 26 23 23 30 26 20
49 54 59 58 63 63 62 55 51 48 37 41 41 48 43 38 28 41 44 44 49 49 48 48 43 41 50 47 50 48 43 41 38 38 33 30 30 26 27 28 29 21 20 24
49 64 60 57 58 64 58 61 43 42 32 35 40 45 49 46 40 35 32 50 48 48 54 53 38 42 49 49 53 52 47 42 39 32 37 31 28 27 23 18 23 22 19 22
45 57 50 66 60 55 53 57 50 36 40 31 46 31 47 45 43 36 39 40 49 51 57 48 44 43 45 46 50 46 46 44 42 41 34 33 25 24 22 23 19 18 22 13
35 51 58 63 69 60 48 48 51 39 43 33 39 27 45 43 47 47 39 46 45 49 58 56 53 41 38 44 46 45 47 43 52 38 28 26 24 23 21 19 18 24 9 9
51 46 50 45 62 61 50 43 47 34 33 27 42 39 38 46 52 45 41 52 46 48 50 44 40 49 43 40 40 39 40 37 36 32 29 25 31 24 21 18 13 12 8 3
48 51 46 42 45 61 48 41 33 29 27 34 40 33 33 45 46 42 46 55 57 43 38 30 38 39 42 41 40 38 39 35 34 32 33 33 34 35 29 19 17 17 12 5
37 38 48 35 41 41 54 49 34 57 44 40 49 26 27 29 23 44 59 48 38 38 44 45 45 45 43 43 40 37 38 38 36 38 35 31 28 28 26 27 22 16 9 2
29 40 49 45 29 52 66 52 59 41 39 32 35 29 28 22 25 27 41 43 30 34 40 38 39 41 42 42 41 43 44 42 39 39 39 38 36 33 28 24 17 10 8 7
15 30 54 47 43 42 54 54 52 39 43 42 43 44 26 30 31 31 30 33 28 33 44 47 48 48 46 47 49 46 44 44 42 39 36 33 30 25 20 15 9 4 2 6
12 14 38 46 39 49 32 41 46 46 27 38 30 36 28 47 41 37 33 43 46 44 44 48 50 50 51 50 49 48 46 44 41 38 35 32 28 23 19 14 9 7 10 13
10 11 29 57 46 54 49 56 61 26 48 29 24 10 8 51 41 45 48 58 58 56 58 58 58 56 53 52 49 47 44 41 39 36 33 30 25 20 16 13 9 10 12 15
11 9 24 42 11 20 37 54 51 45 29 41 23 16 31 43 37 43 51 58 58 60 59 58 58 56 53 49 47 45 42 39 35 31 28 25 21 15 11 9 10 11 14 15
16 10 37 34 46 48 54 43 44 43 29 17 19 35 32 38 35 39 52 60 61 60 60 59 58 55 52 48 45 42 40 35 31 27 23 19 16 11 9 9 11 12 14 15
7 17 26 10 25 44 46 54 56 51 27 30 50 43 42 45 36 49 60 63 64 61 60 57 55 51 47 44 41 38 34 30 25 21 18 15 13 11 9 11 12 13 14 14
15 10 29 15 27 47 44 50 51 42 31 15 38 42 44 53 55 53 57 62 63 61 58 54 52 48 43 38 34 31 27 24 20 18 15 12 11 9 11 13 12 13 12 14
11 13 9 17 42 54 50 46 45 22 18 14 25 35 48 42 38 49 57 60 62 59 55 51 45 39 35 31 27 25 22 19 18 15 14 13 12 10 13 12 11 10 14 14
12 5 9 9 33 16 30 38 35 10 26 17 52 41 45 51 56 56 55 61 59 55 50 44 38 34 30 26 23 22 18 17 15 15 14 14 12 11 11 10 11 8 8 15
31 11 12 11 7 19 24 25 29 6 29 44 56 45 54 63 63 47 50 50 51 48 44 39 33 30 27 24 21 19 17 15 15 15 14 14 12 10 10 10 8 6 7 12
7 11 11 10 8 8 9 32 30 14 23 42 57 48 52 68 34 24 48 46 43 38 34 34 29 27 26 24 20 18 15 15 15 15 15 16 13 11 9 9 8 6 7 12
11 12 9 19 12 10 21 39 26 7 16 57 64 71 61 22 37 59 49 41 35 32 30 29 29 26 23 22 20 19 15 17 15 14 14 13 12 17 12 7 8 5 10 10
13 14 12 9 11 11 49 13 9 4 59 59 58 51 51 71 72 59 48 42 37 32 30 25 25 24 22 22 19 17 18 16 14 14 13 13 10 8 5 5 5 8 8 9
10 13 7 13 8 19 36 20 24 36 54 54 54 56 64 67 63 55 48 39 33 30 27 24 23 24 21 21 19 15 16 15 15 13 12 8 7 7 5 8 4 6 9 8
22 39 8 4 16 24 45 56 57 52 55 54 51 56 60 63 53 50 40 34 33 31 29 23 21 22 21 20 19 16 15 15 14 14 13 12 10 13 1 7 7 5 8 9
13 22 13 9 7 21 46 43 44 56 60 62 60 54 55 57 48 45 41 36 32 29 24 22 23 23 22 17 16 17 17 16 15 13 13 12 8 2 11 10 8 8 8 14
25 10 6 6 18 27 19 33 38 56 60 59 69 59 49 50 51 45 41 35 30 28 24 25 24 21 18 16 15 18 18 15 16 11 10 12 10 3 9 9 15 9 17 20
Wind_Direction_500mb
215 215 209 213 219 226 226 222 219 211 223 197 222 224 219 206 228 201 210 211 211 210 204 198 197 196 187 181 186 184 184 191 195 197 197 200 205 197 210 213 212 227 240 230
210 222 225 219 217 227 232 238 214 218 197 186 213 226 209 210 215 199 203 197 200 200 199 194 186 192 188 181 188 183 185 184 184 194 187 197 200 196 197 209 214 212 210 218
208 216 225 232 223 215 218 227 232 196 178 206 223 221 224 215 195 201 210 201 200 200 197 190 180 190 188 189 191 188 187 186 178 189 181 173 175 180 185 205 213 199 201 225
229 206 214 227 231 219 211 218 231 184 183 204 221 217 212 205 212 214 204 207 192 194 194 178 185 182 184 187 192 191 184 185 170 182 176 174 177 187 186 193 193 191 220 226
220 228 213 199 218 221 220 205 221 201 205 201 202 242 196 202 208 203 203 202 192 186 186 180 181 178 173 175 179 179 182 178 174 163 171 173 172 190 159 161 174 191 221 216
247 240 228 228 198 225 215 207 206 214 213 206 208 212 225 187 202 187 192 197 189 180 184 185 181 170 164 167 165 164 166 164 165 163 172 164 176 160 166 162 148 155 152 261
232 233 246 219 193 204 211 200 189 194 195 207 188 202 248 176 187 179 186 188 186 164 172 156 155 157 160 157 156 159 164 156 154 164 157 164 166 168 178 137 152 137 127 100
215 217 222 203 207 193 197 180 195 179 195 197 186 209 204 66 96 195 180 152 146 168 169 175 156 152 151 148 149 149 143 136 139 150 153 150 134 132 130 138 132 124 117 224
214 212 184 242 186 213 186 201 208 198 201 196 183 147 78 124 105 89 103 122 160 166 133 132 146 146 143 140 137 137 133 127 121 121 122 124 130 139 132 131 118 147 143 13
296 230 182 192 178 218 190 206 202 226 196 220 188 163 156 162 150 121 116 125 144 143 144 142 134 132 130 128 128 124 123 120 117 115 113 112 116 120 124 126 129 130 60 337
323 250 213 185 199 193 196 193 216 224 231 203 185 175 158 161 156 141 134 144 150 137 130 128 129 127 124 124 122 119 119 117 113 110 108 106 104 105 108 98 86 48 1 347
230 260 196 190 179 221 194 202 208 209 227 249 168 81 170 135 136 137 142 152 138 137 136 131 128 126 123 121 121 118 115 111 106 104 102 99 98 94 89 79 45 12 348 342
221 220 196 195 187 266 244 198 207 221 237 220 173 132 91 112 127 140 137 131 132 127 125 124 123 122 120 118 114 110 108 105 103 101 99 97 92 85 69 37 6 359 351 348
243 260 202 187 191 182 214 199 200 206 238 214 188 132 120 122 130 130 132 133 131 128 127 125 122 119 117 114 111 108 104 101 100 98 95 88 78 60 31 16 2 349 351 354
128 232 186 92 222 195 198 201 194 216 213 217 139 147 145 135 135 135 136 135 133 130 126 122 119 116 114 110 106 102 97 96 95 92 84 73 58 43 23 8 1 3 5 360
204 245 145 200 256 233 197 211 186 191 209 75 161 134 140 130 136 139 141 138 131 128 123 120 116 113 109 105 100 95 90 85 85 80 69 57 52 27 14 17 14 14 10 360
309 186 112 195 211 182 196 196 192 121 224 147 169 133 133 133 137 144 142 137 129 124 122 118 115 110 103 97 92 86 82 79 75 70 58 47 40 17 13 18 24 6 23 358
319 143 155 112 105 169 196 141 212 140 25 124 118 130 130 129 137 142 135 128 125 123 120 115 110 103 94 90 85 80 75 74 71 62 49 37 24 13 14 21 22 33 25 4
211 203 124 139 125 124 61 133 166 44 95 120 121 126 124 125 115 103 116 122 122 118 114 111 107 100 91 82 76 75 72 70 63 49 34 26 18 19 24 36 22 4 39 6
39 156 105 114 126 102 345 350 9 120 100 126 129 133 132 133 114 119 120 121 118 114 110 106 99 92 81 69 70 73 67 60 47 35 27 35 32 28 43 37 17 356 36 9
1 356 162 112 81 98 346 322 292 80 116 139 139 140 150 134 129 132 129 122 115 109 108 104 95 82 73 68 66 63 53 41 28 25 31 26 26 49 12 7 344 353 18 14
5 323 28 19 99 76 344 358 25 257 131 131 133 141 112 119 128 130 126 120 113 110 98 87 85 80 73 69 65 58 43 26 23 26 27 20 20 19 336 358 339 16 25 360
37 2 30 32 63 345 342 1 93 113 118 133 127 122 124 126 127 125 122 120 113 101 96 88 80 77 67 61 63 55 32 19 22 28 25 5 35 28 13 355 27 19 9 15
1 13 75 178 18 18 25 47 74 88 97 111 117 122 124 123 124 121 120 112 104 95 90 91 90 82 73 62 51 44 28 23 25 23 16 3 20 92 93 114 68 3 3 16
357 308 45 77 101 61 33 51 71 80 91 100 105 112 119 121 118 115 111 107 105 103 101 99 92 81 71 60 49 40 30 33 38 26 19 14 17 173 60 301 213 60 338 349
347 330 333 69 48 93 59 78 89 95 97 102 113 106 108 112 111 111 107 107 107 106 103 91 87 83 75 62 45 40 31 35 49 32 27 20 39 19 176 97 334 284 323 324
Wind_Speed_850mb
61 36 52 76 71 52 48 47 53 40 47 41 50 43 46 27 37 43 50 52 49 51 49 48 41 41 50 51 44 46 45 43 45 48 42 35 35 28 26 23 23 30 26 20
49 54 59 58 63 63 62 55 51 48 37 41 41 48 43 38 28 41 44 44 49 49 48 48 43 41 50 47 50 48 43 41 38 38 33 30 30 26 27 28 29 21 20 24
49 64 60 57 58 64 58 61 43 42 32 35 40 45 49 46 40 35 32 50 48 48 54 53 38 42 49 49 53 52 47 42 39 32 37 31 28 27 23 18 23 22 19 22
45 57 50 66 60 55 53 57 50 36 40 31 46 31 47 45 43 36 39 40 49 51 57 48 44 43 45 46 50 46 46 44 42 41 34 33 25 24 22 23 19 18 22 13
35 51 58 63 69 60 48 48 51 39 43 33 39 27 45 43 47 47 39 46 45 49 58 56 53 41 38 44 46 45 47 43 52 38 28 26 24 23 21 19 18 24 9 9
51 46 50 45 62 61 50 43 47 34 33 27 42 39 38 46 52 45 41 52 46 48 50 44 40 49 43 40 40 39 40 37 36 32 29 25 31 24 21 18 13 12 8 3
48 51 46 42 45 61 48 41 33 29 27 34 40 33 33 45 46 42 46 55 57 43 38 30 38 39 42 41 40 38 39 35 34 32 33 33 34 35 29 19 17 17 12 5
37 38 48 35 41 41 54 49 34 57 44 40 49 26 27 29 23 44 59 48 38 38 44 45 45 45 43 43 40 37 38 38 36 38 35 31 28 28 26 27 22 16 9 2
29 40 49 45 29 52 66 52 59 41 39 32 35 29 28 22 25 27 41 43 30 34 40 38 39 41 42 42 41 43 44 42 39 39 39 38 36 33 28 24 17 10 8 7
15 30 54 47 43 42 54 54 52 39 43 42 43 44 26 30 31 31 30 33 28 33 44 47 48 48 46 47 49 46 44 44 42 39 36 33 30 25 20 15 9 4 2 6
12 14 38 46 39 49 32 41 46 46 27 38 30 36 28 47 41 37 33 43 46 44 44 48 50 50 51 50 49 48 46 44 41 38 35 32 28 23 19 14 9 7 10 13
10 11 29 57 46 54 49 56 61 26 48 29 24 10 8 51 41 45 48 58 58 56 58 58 58 56 53 52 49 47 44 41 39 36 33 30 25 20 16 13 9 10 12 15
11 9 24 42 11 20 37 54 51 45 29 41 23 16 31 43 37 43 51 58 58 60 59 58 58 56 53 49 47 45 42 39 35 31 28 25 21 15 11 9 10 11 14 15
16 10 37 34 46 48 54 43 44 43 29 17 19 35 32 38 35 39 52 60 61 60 60 59 58 55 52 48 45 42 40 35 31 27 23 19 16 11 9 9 11 12 14 15
7 17 26 10 25 44 46 54 56 51 27 30 50 43 42 45 36 49 60 63 64 61 60 57 55 51 47 44 41 38 34 30 25 21 18 15 13 11 9 11 12 13 14 14
15 10 29 15 27 47 44 50 51 42 31 15 38 42 44 53 55 53 57 62 63 61 58 54 52 48 43 38 34 31 27 24 20 18 15 12 11 9 11 13 12 13 12 14
11 13 9 17 42 54 50 46 45 22 18 14 25 35 48 42 38 49 57 60 62 59 55 51 45 39 35 31 27 25 22 19 18 15 14 13 12 10 13 12 11 10 14 14
12 5 9 9 33 16 30 38 35 10 26 17 52 41 45 51 56 56 55 61 59 55 50 44 38 34 30 26 23 22 18 17 15 15 14 14 12 11 11 10 11 8 8 15
31 11 12 11 7 19 24 25 29 6 29 44 56 45 54 63 63 47 50 50 51 48 44 39 33 30 27 24 21 19 17 15 15 15 14 14 12 10 10 10 8 6 7 12
7 11 11 10 8 8 9 32 30 14 23 42 57 48 52 68 34 24 48 46 43 38 34 34 29 27 26 24 20 18 15 15 15 15 15 16 13 11 9 9 8 6 7 12
11 12 9 19 12 10 21 39 26 7 16 57 64 71 61 22 37 59 49 41 35 32 30 29 29 26 23 22 20 19 15 17 15 14 14 13 12 17 12 7 8 5 10 10
13 14 12 9 11 11 49 13 9 4 59 59 58 51 51 71 72 59 48 42 37 32 30 25 25 24 22 22 19 17 18 16 14 14 13 13 10 8 5 5 5 8 8 9
10 13 7 13 8 19 36 20 24 36 54 54 54 56 64 67 63 55 48 39 33 30 27 24 23 24 21 21 19 15 16 15 15 13 12 8 7 7 5 8 4 6 9 8
22 39 8 4 16 24 45 56 57 52 55 54 51 56 60 63 53 50 40 34 33 31 29 23 21 22 21 20 19 16 15 15 14 14 13 12 10 13 1 7 7 5 8 9
13 22 13 9 7 21 46 43 44 56 60 62 60 54 55 57 48 45 41 36 32 29 24 22 23 23 22 17 16 17 17 16 15 13 13 12 8 2 11 10 8 8 8 14
25 10 6 6 18 27 19 33 38 56 60 59 69 59 49 50 51 45 41 35 30 28 24 25 24 21 18 16 15 18 18 15 16 11 10 12 10 3 9 9 15 9 17 20
Wind_Direction_850mb
215 215 209 213 219 226 226 222 219 211 223 197 222 224 219 206 228 201 210 211 211 210 204 198 197 196 187 181 186 184 184 191 195 197 197 200 205 197 210 213 212 227 240 230
210 222 225 219 217 227 232 238 214 218 197 186 213 226 209 210 215 199 203 197 200 200 199 194 186 192 188 181 188 183 185 184 184 194 187 197 200 196 197 209 214 212 210 218
208 216 225 232 223 215 218 227 232 196 178 206 223 221 224 215 195 201 210 201 200 200 197 190 180 190 188 189 191 188 187 186 178 189 181 173 175 180 185 205 213 199 201 225
229 206 214 227 231 219 211 218 231 184 183 204 221 217 212 205 212 214 204 207 192 194 194 178 185 182 184 187 192 191 184 185 170 182 176 174 177 187 186 193 193 191 220 226
220 228 213 199 218 221 220 205 221 201 205 201 202 242 196 202 208 203 203 202 192 186 186 180 181 178 173 175 179 179 182 178 174 163 171 173 172 190 159 161 174 191 221 216
247 240 228 228 198 225 215 207 206 214 213 206 208 212 225 187 202 187 192 197 189 180 184 185 181 170 164 167 165 164 166 164 165 163 172 164 176 160 166 162 148 155 152 261
232 233 246 219 193 204 211 200 189 194 195 207 188 202 248 176 187 179 186 188 186 164 172 156 155 157 160 157 156 159 164 156 154 164 157 164 166 168 178 137 152 137 127 100
215 217 222 203 207 193 197 180 195 179 195 197 186 209 204 66 96 195 180 152 146 168 169 175 156 152 151 148 149 149 143 136 139 150 153 150 134 132 130 138 132 124 117 224
214 212 184 242 186 213 186 201 208 198 201 196 183 147 78 124 105 89 103 122 160 166 133 132 146 146 143 140 137 137 133 127 121 121 122 124 130 139 132 131 118 147 143 13
296 230 182 192 178 218 190 206 202 226 196 220 188 163 156 162 150 121 116 125 144 143 144 142 134 132 130 128 128 124 123 120 117 115 113 112 116 120 124 126 129 130 60 337
323 250 213 185 199 193 196 193 216 224 231 203 185 175 158 161 156 141 134 144 150 137 130 128 129 127 124 124 122 119 119 117 113 110 108 106 104 105 108 98 86 48 1 347
230 260 196 190 179 221 194 202 208 209 227 249 168 81 170 135 136 137 142 152 138 137 136 131 128 126 123 121 121 118 115 111 106 104 102 99 98 94 89 79 45 12 348 342
221 220 196 195 187 266 244 198 207 221 237 220 173 132 91 112 127 140 137 131 132 127 125 124 123 122 120 118 114 110 108 105 103 101 99 97 92 85 69 37 6 359 351 348
243 260 202 187 191 182 214 199 200 206 238 214 188 132 120 122 130 130 132 133 131 128 127 125 122 119 117 114 111 108 104 101 100 98 95 88 78 60 31 16 2 349 351 354
128 232 186 92 222 195 198 201 194 216 213 217 139 147 145 135 135 135 136 135 133 130 126 122 119 116 114 110 106 102 97 96 95 92 84 73 58 43 23 8 1 3 5 360
204 245 145 200 256 233 197 211 186 191 209 75 161 134 140 130 136 139 141 138 131 128 123 120 116 113 109 105 100 95 90 85 85 80 69 57 52 27 14 17 14 14 10 360
309 186 112 195 211 182 196 196 192 121 224 147 169 133 133 133 137 144 142 137 129 124 122 118 115 110 103 97 92 86 82 79 75 70 58 47 40 17 13 18 24 6 23 358
319 143 155 112 105 169 196 141 212 140 25 124 118 130 130 129 137 142 135 128 125 123 120 115 110 103 94 90 85 80 75 74 71 62 49 37 24 13 14 21 22 33 25 4
211 203 124 139 125 124 61 133 166 44 95 120 121 126 124 125 115 103 116 122 122 118 114 111 107 100 91 82 76 75 72 70 63 49 34 26 18 19 24 36 22 4 39 6
39 156 105 114 126 102 345 350 9 120 100 126 129 133 132 133 114 119 120 121 118 114 110 106 99 92 81 69 70 73 67 60 47 35 27 35 32 28 43 37 17 356 36 9
1 356 162 112 81 98 346 322 292 80 116 139 139 140 150 134 129 132 129 122 115 109 108 104 95 82 73 68 66 63 53 41 28 25 31 26 26 49 12 7 344 353 18 14
5 323 28 19 99 76 344 358 25 257 131 131 133 141 112 119 128 130 126 120 113 110 98 87 85 80 73 69 65 58 43 26 23 26 27 20 20 19 336 358 339 16 25 360
37 2 30 32 63 345 342 1 93 113 118 133 127 122 124 126 127 125 122 120 113 101 96 88 80 77 67 61 63 55 32 19 22 28 25 5 35 28 13 355 27 19 9 15
1 13 75 178 18 18 25 47 74 88 97 111 117 122 124 123 124 121 120 112 104 95 90 91 90 82 73 62 51 44 28 23 25 23 16 3 20 92 93 114 68 3 3 16
357 308 45 77 101 61 33 51 71 80 91 100 105 112 119 121 118 115 111 107 105 103 101 99 92 81 71 60 49 40 30 33 38 26 19 14 17 173 60 301 213 60 338 349
347 330 333 69 48 93 59 78 89 95 97 102 113 106 108 112 111 111 107 107 107 106 103 91 87 83 75 62 45 40 31 35 49 32 27 20 39 19 176 97 334 284 323 324